Regional Weather Roundup
Issued by NWS Mobile, AL

Home | Current Version | Previous Version | Text Only | Print | Product List | Glossary On
Versions: 1 2 3 4 5 6 7 8 9 10 11 12 13 14 15 16 17 18 19 20 21 22 23 24 25 26 27 28 29 30 31 32 33 34 35 36 37 38 39 40 41 42 43 44 45 46 47 48 49 50
000
ASUS44 KMOB 291417
RWRMOB
REGIONAL WEATHER ROUNDUP
NATIONAL WEATHER SERVICE MOBILE AL
900 AM CDT WED JUL 29 2015

ALZ061>064-291500-
COASTAL ALABAMA


CITY           SKY/WX    TMP DP  RH WIND       PRES   REMARKS
MOBILE REG APT PTSUNNY   83  76  79 W3        30.05R
BROOKLEY FIELD MOSUNNY   84  76  76 W3        30.04R
GULF SHORES    MOSUNNY   84  77  79 NW8       30.02R HX  95

$$

ALZ051>060-291500-
INTERIOR SOUTHWEST AND SOUTH CENTRAL ALABAMA


CITY           SKY/WX    TMP DP  RH WIND       PRES   REMARKS
ANDALUSIA/OPP  MOSUNNY   92  75  57 N6        30.01S HX 103
EVERGREEN      MOSUNNY   87  75  67 NW5       30.03R HX  96
FLORALA        MOSUNNY   86  74  67 VRB5      30.03S
GREENVILLE     FAIR      87  75  67 NW3       30.02S HX  96

$$

FLZ001>006-291500-
WESTERN FLORIDA PANHANDLE


CITY           SKY/WX    TMP DP  RH WIND       PRES   REMARKS
CRESTVIEW      MOSUNNY   86  77  74 VRB5      30.03R HX  97
DESTIN         MOSUNNY   87  77  72 N10       30.00R HX  99
DUKE FIELD     PTSUNNY   85  76  74 NW7       30.02R
MARY ESTHER    MOSUNNY   89  74  61 NW14      29.99S HX  97
MILTON         PTSUNNY   89  77  67 NW5       30.02R HX 101
PENSACOLA      SUNNY     86  73  65 NW12      30.01S
NAS PENSACOLA  PTSUNNY   85  75  72 NW12      30.01R
VALPARAISO     PTSUNNY   87  76  69 N6        30.00S HX  98

$$

...MARINE OBSERVATIONS...

STATION/POSITION TIME  SKY/WX   TEMP    WIND        PRES    VSBY
                                AIR SEA DIR/SP/G
                 (UTC)          (F)     (DEG/KT/KT) (MB)    (MI)
PASCAGOULA       1300            85     270/  7/ 10 1016.5R
PETIT BOIS ISL   1300            84     250/ 12/ 13 1017.1R
E DAUPHIN ISLAND 1400            84     280/  8/ 10 1016.5R
MIDDLE BAY LIGHT 1300            82     280/ 16     1015.2S
USCG MOBILE BAY  1300            84 85  300/  5/  7 1015.4R
STATE DOCKS      1300            87 84              1016.3R
MEAHER PARK      1400            84     340/  2     1015.9S
12 S ORANGE BCH  1350            84 84  300/ 14/ 16 1015.6R
WVE H/P(F/S)=  2/ 4

PENSACOLA BAY    1300            84 83  330/  7/ 13 1016.2R
64 S DAUPHIN ISL 1350            86 87  330/ 14/ 16 1016.8R
WVE H/P(F/S)=  2/ 3

67 S FORT MORGAN 1330            87     320/ 14     1016.6R
115 SE PENSACOLA 1350            87 87  320/ 12/ 16 1016.3R
WVE H/P(F/S)=  2/ 4

MID GULF/42001   1350            85 86  290/  6/  8 1017.6R
WVE H/P(F/S)=  1/ 5

EAST GULF/42003  1350            83 84  280/  2/  4 1016.4R
WVE H/P(F/S)=  1/ 9


$$

...NEARBY LOCATIONS

CITY           SKY/WX    TMP DP  RH WIND       PRES   REMARKS
GULFPORT       MOSUNNY   83  75  77 NW7       30.02R
BILOXI         MOSUNNY   83  75  78 VRB1      30.03R
PASCAGOULA     MOSUNNY   85  77  77 W3        30.03R HX  95
HATTIESBURG    SUNNY     85  74  69 NW8       30.06R
LAUREL         SUNNY     90 N/A N/A N7        30.07S
MERIDIAN       SUNNY     86  75  69 VRB3      30.05S HX  95
MERIDIAN NAS   MOSUNNY   85  75  72 NW6       30.05S
MONTGOMERY     SUNNY     87  75  67 W3        30.02R HX  96
MAXWELL AFB    MOSUNNY   85  75  74 W3        30.01S
TROY           SUNNY     88  74  63 VRB6      30.02F HX  96
FORT RUCKER    SUNNY     87  74  64 N6        30.01R HX  95
DALEVILLE      MOSUNNY   86  74  69 NW7       30.02R
DOTHAN         MOSUNNY   85  75  72 NW12      30.05R

$$

...OTHER SURROUNDING LOCATIONS...

CITY           SKY/WX    TMP DP  RH WIND       PRES   REMARKS
BIRMINGHAM     CLOUDY    80  75  84 W6        30.06S
TUSCALOOSA     SUNNY     87  76  69 NW5       30.03S HX  97
COLUMBUS GA    MOSUNNY   83  71  67 CALM      30.00S
PANAMA CITY    NOT AVBL
TALLAHASSEE    MOSUNNY   88  76  67 NW7       29.99R HX  99
BATON ROUGE    SUNNY     85  76  74 NW7       30.05R
NEW ORLEANS    PTSUNNY   86  75  69 NW13      30.04R HX  95
SLIDELL        SUNNY     85  77  77 NW9       30.03S HX  95
JACKSON        MOSUNNY   88  72  58 W6        30.06S
MCCOMB         SUNNY     85  76  74 NW14      30.07R

$$

...SURROUNDING MARINE OBSERVATIONS...

STATION/POSITION TIME  SKY/WX   TEMP    WIND        PRES    VSBY
                                AIR SEA DIR/SP/G
                 (UTC)          (F)     (DEG/KT/KT) (MB)    (MI)
WAVELAND         1300            81 89  300/  9/ 11 1017.0R
PASCAGOULA RGN A 1300            84     250/  9/ 11 1016.1R
PASCAGOULA PORT  1300               85                N/A
GRAND ISLE       1300            85 90  340/ 11/ 13 1017.0R
SOUTHWEST PASS   1400            87     340/ 13/ 14 1017.3R
PILOT STATION E  1300            87 86  320/ 10/ 11 1017.1R
SHELL BEACH      1300            83 88  260/  7/  8 1016.2R
PANAMA CITY      1300            84 85  340/  8/ 11 1015.0R
APALACHICOLA     1300            85 89  340/  6/ 10 1015.1R
TYNDALL TOWER C  1400            85     310/ 14/ 15 1015.4R
S APLCHCLA/42036 1350            87 85  310/ 10/ 12 1015.5R
WVE H/P(F/S)=  2/ 4


$$



USA.gov is the U.S. government's official web portal to all federal, state and local government web resources and services.